Location: Newark
(47.7394°N, 8.0008°E)
Time: 23:28:09
(UTC+00:00)

N. Korean satellite - Visible Passes

Search period start: 14 December 2019 00:00
Search period end: 24 December 2019 00:00
Orbit: 455 x 507 km, 97.2° (Epoch: 14 December)

Date Brightness Start Highest point End Pass type
(mag) Time Alt. Az. Time Alt. Az. Time Alt. Az.
14 Dec 8.4 04:53:30 10° NNE 04:56:42 32° E 04:59:49 10° SSE visible
14 Dec 7.9 06:27:20 10° NNW 06:29:54 19° WNW 06:32:25 10° WSW visible
14 Dec 8.8 17:05:13 10° SSW 17:08:30 30° W 17:11:47 10° NNW visible
15 Dec 9.5 04:28:46 10° NE 04:31:04 17° E 04:33:22 10° SE visible
15 Dec 7.1 06:01:23 10° N 06:04:37 35° WNW 06:07:48 10° SW visible
15 Dec 7.3 16:39:20 10° S 16:42:59 60° W 16:46:37 10° NNW visible
16 Dec 6.3 05:35:45 10° N 05:39:15 73° WNW 05:42:41 10° SSW visible
16 Dec 6.6 16:13:54 10° SSE 16:17:33 67° ENE 16:21:11 10° N visible
16 Dec 10.3 17:50:44 10° W 17:51:21 10° W 17:51:58 10° WNW visible
17 Dec 7.3 05:10:22 10° NNE 05:13:48 52° E 05:17:09 10° S visible
17 Dec 9.5 17:22:57 10° SW 17:25:41 19° W 17:28:23 10° NW visible
18 Dec 8.8 04:45:17 10° NE 04:48:14 25° E 04:51:09 10° SSE visible
18 Dec 7.6 06:18:45 10° NNW 06:21:33 23° WNW 06:24:19 10° WSW visible
18 Dec 8.3 16:56:40 10° SSW 17:00:05 36° W 17:03:29 10° NNW visible
19 Dec 9.8 04:20:48 10° ENE 04:22:35 13° E 04:24:20 10° ESE visible
19 Dec 6.7 05:52:54 10° N 05:56:15 43° WNW 05:59:31 10° SW visible
19 Dec 6.8 16:30:56 10° S 16:34:35 75° WSW 16:38:13 10° NNW visible
20 Dec 6.4 05:27:21 10° NNE 05:30:51 88° ESE 05:34:16 10° SSW visible
20 Dec 10.0 17:41:12 10° WSW 17:42:52 13° W 17:44:32 10° WNW visible
21 Dec 7.8 05:02:02 10° NNE 05:05:21 40° E 05:08:36 10° S visible
21 Dec 8.1 06:36:21 10° NNW 06:38:26 15° WNW 06:40:29 10° W visible
21 Dec 9.2 17:14:14 10° SSW 17:17:13 23° W 17:20:11 10° NW visible
22 Dec 9.2 04:37:05 10° NE 04:39:45 20° E 04:42:23 10° SE visible
22 Dec 7.4 06:10:11 10° N 06:13:10 27° WNW 06:16:08 10° SW visible
22 Dec 7.8 16:48:09 10° S 16:51:40 45° W 16:55:08 10° NNW visible
23 Dec 10.0 04:13:15 10° ENE 04:14:04 11° E 04:14:52 10° ESE visible
23 Dec 6.5 05:44:26 10° N 05:47:50 55° WNW 05:51:11 10° SSW visible
23 Dec 6.5 16:22:33 10° SSE 16:26:11 86° ENE 16:29:47 10° NNW visible
